Weather History for KBUF - March, 2013

Change the Weather History Date:

Monday, March 4, 2013

  Actual Average Record
Temperature  
Mean Temperature 24 °F 30 °F  
Max Temperature 30 °F 38 °F 63 °F (1974)
Min Temperature 17 °F 22 °F -3 °F (1943)
Degree Days  
Heating Degree Days 41 35  
Month to date heating degree days 161 142  
Since 1 July heating degree days 4481 4886  
Cooling Degree Days 0 0  
Month to date cooling degree days 0 0  
Year to date cooling degree days 0 0  
Moisture  
Dew Point 17 °F    
Average Humidity 71    
Maximum Humidity 84    
Minimum Humidity 58    
Precipitation  
Precipitation T in 0.09 in 1.28 in (1881)
Month to date precipitation 0.17 0.36  
Year to date precipitation 5.72 6.03  
Snow  
Snow T in 0.50 in 4.90 in (1991)
Month to date snowfall 3.8 2.1  
Since 1 July snowfall 52.5 80.9  
Snow Depth 4.00 in    
Sea Level Pressure  
Sea Level Pressure 30.02 in    
Wind  
Wind Speed 11 mph (West)    
Max Wind Speed 21 mph    
Max Gust Speed 25 mph    
Visibility 9 miles    
Events Snow    
T = Trace of Precipitation, MM = Missing Value Source: NWS Daily Summary

Daily Weather History Graph

Daily Weather History Graph

Search for Another Location

Airport or City:

Trip Planner

Search our weather history database for the weather conditions in past years. The results will help you decide how hot, cold, wet, or windy it might be!

Date:

Astronomy

Mar. 04, 2013 Rise Set
Actual Time 6:45 AM EST 6:08 PM EST
Civil Twilight 6:17 AM EST 6:36 PM EST
Nautical Twilight 5:44 AM EST 7:09 PM EST
Astronomical Twilight 5:11 AM EST 7:42 PM EST
Moon 12:59 AM EST (3/4) 10:42 AM EST (3/4)
Length of Visible Light 12h 19m
Length of Day
11h 22m
Waning Gibbous, 52% of the Moon is Illuminated
Mar 4
Waning Gibbous
Mar 4
Last Quarter
Mar 11
New
Mar 19
First Quarter
Mar 27
Full

Hourly Weather History & Observations

Time (EST) Temp. Windchill Dew Point Humidity Pressure Visibility Wind Dir Wind Speed Gust Speed Precip Events Conditions
12:54 AM 19.9 °F 8.6 °F 15.1 °F 81% 29.96 in 9.0 mi West 10.4 mph - 0.00 in Snow Light Snow
1:54 AM 19.9 °F 7.9 °F 15.1 °F 81% 29.96 in 9.0 mi West 11.5 mph - 0.00 in Snow Light Snow
2:54 AM 19.9 °F 8.6 °F 15.1 °F 81% 29.97 in 6.0 mi West 10.4 mph - 0.00 in Snow Light Snow
3:54 AM 19.9 °F 9.3 °F 15.1 °F 81% 29.98 in 9.0 mi West 9.2 mph - 0.00 in Snow Light Snow
4:54 AM 19.9 °F 8.6 °F 15.1 °F 81% 30.00 in 9.0 mi West 10.4 mph - 0.00 in Snow Light Snow
5:54 AM 19.0 °F 8.2 °F 14.0 °F 81% 30.01 in 9.0 mi West 9.2 mph - 0.00 in Snow Light Snow
6:27 AM 17.6 °F 6.4 °F 12.2 °F 79% 29.97 in 9.0 mi West 9.2 mph - 0.00 in Snow Light Snow
6:54 AM 18.0 °F 6.1 °F 12.9 °F 81% 30.02 in 9.0 mi West 10.4 mph - 0.00 in Snow Light Snow
7:00 AM 17.6 °F 5.7 °F 12.2 °F 79% 29.98 in 9.0 mi West 10.4 mph - N/A Snow Light Snow
7:54 AM 19.9 °F 10.1 °F 15.1 °F 81% 30.04 in 3.0 mi West 8.1 mph - 0.00 in Snow Light Snow
8:54 AM 21.0 °F 8.6 °F 15.1 °F 78% 30.04 in 7.0 mi West 12.7 mph 19.6 mph 0.00 in Snow Light Snow
9:54 AM 23.0 °F 10.1 °F 14.0 °F 68% 30.04 in 6.0 mi WNW 15.0 mph 19.6 mph 0.00 in Snow Light Snow
10:54 AM 24.1 °F 13.7 °F 15.1 °F 69% 30.04 in 8.0 mi West 10.4 mph - 0.00 in Snow Light Snow
11:34 AM 24.8 °F 12.9 °F 15.8 °F 69% 29.99 in 10.0 mi WNW 13.8 mph - 0.00 in   Overcast
11:54 AM 26.1 °F 14.5 °F 16.0 °F 66% 30.03 in 10.0 mi West 13.8 mph - 0.00 in   Overcast
12:49 PM 28.4 °F 16.2 °F 15.8 °F 59% 29.98 in 10.0 mi West 17.3 mph - N/A   Overcast
12:54 PM 28.0 °F 17.0 °F 16.0 °F 61% 30.02 in 10.0 mi West 13.8 mph 23.0 mph N/A   Overcast
1:54 PM 28.0 °F 16.1 °F 18.0 °F 66% 30.01 in 10.0 mi West 16.1 mph - N/A   Overcast
2:10 PM 28.4 °F 17.5 °F 17.6 °F 64% 29.98 in 10.0 mi West 13.8 mph - N/A   Overcast
2:54 PM 28.9 °F 17.7 °F 19.0 °F 67% 30.02 in 10.0 mi West 15.0 mph 24.2 mph N/A   Overcast
3:54 PM 28.4 °F 17.0 °F 19.4 °F 69% 29.99 in 10.0 mi West 15.0 mph 25.3 mph N/A   Overcast
4:54 PM 28.9 °F 18.6 °F 19.9 °F 69% 30.03 in 10.0 mi West 12.7 mph 20.7 mph N/A   Overcast
5:54 PM 28.9 °F 19.8 °F 19.9 °F 69% 30.04 in 10.0 mi West 10.4 mph - N/A   Overcast
6:54 PM 28.0 °F 18.1 °F 19.9 °F 72% 30.06 in 10.0 mi West 11.5 mph - N/A   Overcast
7:54 PM 28.0 °F 18.6 °F 19.9 °F 72% 30.06 in 10.0 mi West 10.4 mph - N/A   Overcast
8:54 PM 28.0 °F 18.6 °F 19.9 °F 72% 30.08 in 10.0 mi West 10.4 mph - 0.00 in Snow Light Snow
9:54 PM 28.0 °F 20.0 °F 19.9 °F 72% 30.08 in 10.0 mi West 8.1 mph - 0.00 in Snow Light Snow
10:54 PM 27.0 °F 16.7 °F 19.9 °F 75% 30.08 in 10.0 mi NW 11.5 mph - 0.00 in Snow Light Snow
11:54 PM 26.1 °F 18.4 °F 18.0 °F 71% 30.09 in 10.0 mi NW 6.9 mph - 0.00 in   Overcast